DELTA 1 DEB

Satellite information

Favourite Embed

Satellite Type and Status

DEBRISIN ORBIT

Key statistics

Satellite DELTA 1 DEB at a glance.

Uptime

18447

Days in orbit

Revolutions

≈ 14.1

Per day

Orbit

SSO

Sun Synchronous Orbit

Inclination

99.7

Latest

Satellite identification and parameters

Extended collection of information and parameters for DELTA 1 DEB.

Object identification

Identified? True

Debris? True

Object name: DELTA 1 DEB

International designator: 1975-052AT

Object number (NORAD): 21325

Object ID (CCSDS): 21325

Country: UNITED STATES OF AMERICA (US)

Current information (Y/N): Y

RCS size: SMALL

Orbital parameters

Period: 102.362 minutes

Inclination: 99.7405 deg

SMA: 7248.581 km

Apoapsis: 941.565 km

Periapsis: 799.327 km

RAAN: 332.8669 deg

Eccentricy: 0.00981149

Argument of periapsis: 280.6851 deg

Mean anomaly: 95.0511 deg

Mean motion: 14.06770557 rev/day

Mean motion (dot): 0.00008182 rev/day2

B* drag term: 0.0047355372 1/REarth

Two-line elements (TLE)

Creation date: Dec. 12, 2025, 10:14 a.m.

Reference frame: TEME

Reference center: EARTH

Epoch: Dec. 12, 2025, 6:18 a.m. UTC

TLE line 0: 0 DELTA 1 DEB

TLE line 1: 1 21325U 75052AT 25346.26254481 .00008182 00000-0 47355-2 0 9999

TLE line 2: 2 21325 99.7405 332.8669 0098115 280.6851 95.0511 14.06770557737224

Live tracking on map

Real-time ground track for satellite DELTA 1 DEB.

In-orbit conjunctions

A list of the most updated potential collisions computed for object DELTA 1 DEB.

Target Orbit TCA Probability of collision Miss distance Type
METEOR 2-8 DEB LEO 2025-03-13 23:16:00 0.0001279607 131.0 (m) DEBRIS
SCOUT A R/B SSO 2024-11-01 11:52:15 0.0001248378 560.0 (m) ROCKET BODY

Associated space launch

Experimental meteorological satellite

DELTA 1 DEB was lifted into orbit during the mission ‘Delta 2910 | Nimbus 6’, on board a Delta 2910 space rocket.

The launch took place on June 12, 1975, 8:12 a.m. from Space Launch Complex 2W.

For more information about the launch, click the button.

Launch to space Delta 2910 | Nimbus 6
Delta 2910 | Nimbus 6

Agency: N/A

Status: Launch Successful

Launch date: June 12, 1975, 8:12 a.m. UTC

Rocket: Delta 2910

Launch pad: Space Launch Complex 2W

Location: Vandenberg SFB, CA, USA

...

Latest news about this satellite

There are no fresh news available about this satellite. Check back as we update our databases every day.


Newsletter sign-up

Weekly statistics, charts and insights to help you stay on top of the space industry.